Waarnemingen

Advertentie
Mijn weer
Ölands Södra Udde, Zweden (2644): temperatuur & dauwpunt: 08.08.2018 08:00:00 - 14.08.2018 08:00:00 (CEST)Ölands Södra Udde, Zweden (2644): windsnelheid & windstoten: 08.08.2018 08:00:00 - 14.08.2018 08:00:00 (CEST)Ölands Södra Udde, Zweden (2644): windrichting: 08.08.2018 08:00:00 - 14.08.2018 08:00:00 (CEST)Ölands Södra Udde, Zweden (2644): luchtdruk: 08.08.2018 08:00:00 - 14.08.2018 08:00:00 (CEST)Ölands Södra Udde, Zweden (2644): zicht: 08.08.2018 08:00:00 - 14.08.2018 08:00:00 (CEST)Ölands Södra Udde, Zweden (2644): neerslag: 08.08.2018 08:00:00 - 14.08.2018 08:00:00 (CEST)
Datum & Tijd tt [°C] td [°C] ff [km/u] ff [kn] fx [km/u] fx [kn] dd ppp [hPa] vv [km] rr [mm]
14.08.2018 08:00:00 17,5 16,9 23 13 28 15 O 1006,1 13 0,1
14.08.2018 07:00:00 17,4 16,8 24 13 29 16 O 1006,4 21 0,0
14.08.2018 06:00:00 17,2 16,6 21 12 29 16 O 1006,6 15 0,0
14.08.2018 05:00:00 17,2 16,6 22 12 26 14 O 1007,1 22 0,0
14.08.2018 04:00:00 16,8 16,3 18 10 21 11 O 1007,8 16 0,0
14.08.2018 03:00:00 17,1 16,6 17 9 20 11 O 1008,2 8 0,1
14.08.2018 02:00:00 17,1 16,5 14 8 17 9 O 1008,5 11 0,2
14.08.2018 01:00:00 16,8 16,2 9 5 21 12 OZO 1009,3 22 0,0
14.08.2018 00:00:00 17,1 16,3 16 8 21 12 O 1009,0 24 0,0
13.08.2018 23:00:00 17,0 16,2 16 9 21 11 O 1008,9 33 0,0
13.08.2018 22:00:00 16,9 15,9 16 9 20 11 O 1009,3 50 0,0
13.08.2018 21:00:00 16,5 15,5 15 8 20 11 O 1009,6 50 0,0
13.08.2018 20:00:00 16,6 15,3 16 9 19 10 O 1009,6 50 0,0
13.08.2018 19:00:00 16,6 15,1 11 6 16 8 O 1009,9 50 0,0
13.08.2018 18:00:00 16,9 14,9 12 6 16 8 O 1010,2 50 0,0
13.08.2018 17:00:00 16,3 14,5 13 7 16 9 OZO 1010,7 32 0,0
13.08.2018 16:00:00 17,2 14,7 11 6 17 9 OZO 1010,6 42 0,0
13.08.2018 15:00:00 17,2 13,7 14 7 17 9 O 1010,6 43 0,0
13.08.2018 14:00:00 16,2 13,3 12 7 16 9 O 1010,9 50 0,0
13.08.2018 13:00:00 15,5 13,2 8 5 16 9 ZO 1011,0 31 0,0
13.08.2018 12:00:00 16,0 13,8 11 6 16 9 O 1011,1 40 0,0
13.08.2018 11:00:00 15,3 13,1 12 7 16 8 ONO 1010,8 46 0,0
13.08.2018 10:00:00 15,1 13,5 13 7 15 8 ONO 1010,7 50 0,0
13.08.2018 09:00:00 15,4 12,7 5 3 9 5 NO 1010,6 50 0,0
13.08.2018 08:00:00 15,1 12,4 0 0 13 7 N 1010,7 50 0,0
13.08.2018 07:00:00 14,5 12,4 5 3 15 8 W 1010,7 43 0,1
13.08.2018 06:00:00 14,5 12,4 9 5 22 12 W 1010,8 47 0,0
13.08.2018 05:00:00 14,6 12,1 10 6 22 12 W 1010,9 50 0,0
13.08.2018 04:00:00 14,7 12,0 16 9 29 16 W 1011,0 50 0,0
13.08.2018 03:00:00 14,4 12,1 15 8 32 17 W 1011,3 45 0,0
13.08.2018 02:00:00 14,9 11,9 21 12 32 17 W 1011,4 44 0,0
13.08.2018 01:00:00 14,9 12,2 23 12 35 19 W 1011,3 41 0,0
13.08.2018 00:00:00 15,1 13,1 22 12 38 21 W 1011,6 49 0,0
12.08.2018 23:00:00 15,2 12,9 29 15 46 25 WZW 1011,7 24 0,0
12.08.2018 22:00:00 16,0 11,8 34 18 48 26 WZW 1012,0 48 0,0
12.08.2018 21:00:00 16,7 11,8 32 18 48 26 WZW 1011,9 50 0,0
12.08.2018 20:00:00 17,6 11,4 36 19 48 26 WZW 1011,6 50 0,0
12.08.2018 19:00:00 18,0 11,8 30 16 48 26 WZW 1011,3 47 0,0
12.08.2018 18:00:00 18,3 11,8 34 18 51 28 WZW 1011,4 50 0,0
12.08.2018 17:00:00 18,9 12,6 34 18 56 31 WZW 1011,5 35 0,0
12.08.2018 16:00:00 19,0 12,5 39 21 59 32 WZW 1011,4 31 0,0
12.08.2018 15:00:00 18,3 12,7 37 20 59 32 WZW 1011,5 41 0,0
12.08.2018 14:00:00 17,9 10,3 34 19 59 32 W 1011,7 46 0,0
12.08.2018 13:00:00 18,6 10,9 43 23 59 32 WZW 1011,6 44 0,0
12.08.2018 12:00:00 17,6 11,4 43 23 58 31 WZW 1011,5 32 0,0
12.08.2018 11:00:00 18,3 11,6 36 19 56 31 W 1011,4 34 0,0
12.08.2018 10:00:00 17,4 11,2 40 22 55 30 W 1011,3 28 0,0
12.08.2018 09:00:00 16,7 11,6 35 19 61 33 W 1011,1 32 0,0
12.08.2018 08:00:00 16,1 12,8 35 19 61 33 W 1010,6 26 0,0
12.08.2018 07:00:00 15,4 12,9 35 19 61 33 W 1010,2 29 0,0
12.08.2018 06:00:00 15,3 12,8 37 20 61 33 W 1009,7 33 0,0
12.08.2018 05:00:00 14,8 11,9 41 22 61 33 W 1009,4 48 0,0
12.08.2018 04:00:00 14,3 11,8 37 20 53 29 W 1009,2 50 0,0
12.08.2018 03:00:00 14,8 11,8 35 19 46 25 W 1009,2 50 0,0
12.08.2018 02:00:00 15,4 11,2 27 15 45 25 W 1009,2 50 0,0
12.08.2018 01:00:00 15,6 12,0 29 15 42 23 W 1009,3 50 0,0
12.08.2018 00:00:00 15,7 12,6 28 15 34 18 W 1009,2 50 0,0
11.08.2018 23:00:00 14,9 12,6 10 6 58 32 WZW 1009,5 50 0,2
11.08.2018 22:00:00 14,4 12,1 16 9 58 32 ZW 1010,4 14 3,7
11.08.2018 21:00:00 17,1 10,5 18 10 52 28 ZW 1011,0 50 0,0
11.08.2018 20:00:00 17,3 12,6 31 17 52 28 WZW 1011,7 37 -
11.08.2018 19:00:00 17,9 13,2 31 17 49 26 ZW 1012,3 50 0,0
11.08.2018 18:00:00 17,6 13,3 31 17 72 39 WZW 1012,9 37 0,0
11.08.2018 17:00:00 18,6 13,9 23 12 72 39 WZW 1013,3 49 2,4
11.08.2018 16:00:00 20,1 13,1 36 19 46 25 Z 1013,2 41 0,0
11.08.2018 15:00:00 22,0 14,6 33 18 41 22 ZZO 1013,7 38 0,0
11.08.2018 14:00:00 20,6 14,0 29 16 36 19 ZZO 1014,9 50 0,0
11.08.2018 13:00:00 20,4 14,7 25 14 40 21 Z 1016,0 47 0,0
11.08.2018 12:00:00 21,3 16,0 29 15 42 23 Z 1016,9 50 0,0
11.08.2018 11:00:00 21,5 15,6 34 19 42 23 Z 1017,5 42 0,0
11.08.2018 10:00:00 21,6 14,3 31 17 36 19 ZZW 1017,7 36 0,0
11.08.2018 09:00:00 21,3 14,7 20 11 32 17 ZZW 1018,1 42 0,0
11.08.2018 08:00:00 19,9 14,0 16 9 32 17 ZZW 1018,3 40 0,0
11.08.2018 07:00:00 19,6 13,5 22 12 33 18 ZW 1018,7 49 0,0
11.08.2018 06:00:00 19,3 13,2 22 12 33 18 WZW 1018,8 50 0,0
11.08.2018 05:00:00 19,1 14,4 24 13 32 18 ZW 1018,8 50 0,0
11.08.2018 04:00:00 18,8 12,5 21 11 35 19 ZW 1019,2 50 0,0
11.08.2018 03:00:00 18,8 12,3 22 12 38 21 WZW 1019,4 50 0,0
11.08.2018 02:00:00 18,9 13,3 22 12 41 22 WZW 1019,5 50 0,0
11.08.2018 01:00:00 19,3 12,1 30 16 41 22 W 1019,7 50 0,0
11.08.2018 00:00:00 19,5 13,2 27 15 37 20 WZW 1019,5 50 0,0
10.08.2018 23:00:00 19,3 10,6 11 6 34 18 WZW 1019,2 50 0,0
10.08.2018 22:00:00 19,9 11,4 16 9 43 23 W 1018,8 50 0,0
10.08.2018 21:00:00 20,5 12,0 31 17 47 25 WZW 1018,2 50 0,0
10.08.2018 20:00:00 20,7 13,6 32 17 49 26 WZW 1017,3 49 0,0
10.08.2018 19:00:00 21,2 13,9 33 18 55 30 WZW 1016,5 43 0,0
10.08.2018 18:00:00 20,9 16,1 37 20 58 31 ZW 1016,4 32 0,0
10.08.2018 17:00:00 21,1 15,4 42 23 58 31 ZW 1016,1 35 0,0
10.08.2018 16:00:00 21,1 16,1 39 21 56 30 ZW 1015,6 30 0,0
10.08.2018 15:00:00 21,4 16,6 37 20 56 30 ZW 1015,2 27 0,0
10.08.2018 14:00:00 21,5 16,5 36 19 55 30 ZW 1014,8 32 0,0
10.08.2018 13:00:00 22,1 16,4 39 21 55 30 ZW 1014,0 29 0,0
10.08.2018 12:00:00 22,7 16,5 36 19 55 30 WZW 1013,3 37 0,0
10.08.2018 11:00:00 22,2 16,9 39 21 54 29 ZW 1012,6 34 0,0
10.08.2018 10:00:00 22,2 17,1 38 20 54 29 WZW 1011,9 37 0,0
10.08.2018 09:00:00 22,5 18,9 34 19 47 25 ZW 1010,9 28 0,0
10.08.2018 08:00:00 22,3 20,2 28 15 41 22 ZZW 1010,3 29 0,0
10.08.2018 07:00:00 21,9 20,0 29 16 37 20 Z 1009,7 18 0,0
10.08.2018 06:00:00 21,4 20,4 27 14 50 27 Z 1009,2 11 0,0
10.08.2018 05:00:00 21,3 20,3 5 3 64 35 ZW 1008,2 9 0,9
10.08.2018 04:00:00 23,4 20,3 42 23 64 35 ZZW 1009,5 17 0,0
10.08.2018 03:00:00 23,1 20,6 33 18 40 21 ZO 1008,5 20 0,0
10.08.2018 02:00:00 22,8 20,5 28 15 36 20 OZO 1009,3 28 0,0
10.08.2018 01:00:00 22,4 20,5 27 14 34 19 O 1010,8 16 0,0
10.08.2018 00:00:00 22,0 20,6 20 11 23 12 O 1011,7 11 0,0
09.08.2018 23:00:00 21,8 20,4 15 8 18 10 O 1012,8 10 0,0
09.08.2018 22:00:00 21,8 19,9 14 8 18 10 OZO 1013,4 15 0,0
09.08.2018 21:00:00 21,8 20,1 15 8 18 10 ZO 1013,8 18 0,0
09.08.2018 20:00:00 22,0 19,5 14 8 17 9 ZZO 1014,4 21 0,0
09.08.2018 19:00:00 22,8 19,2 11 6 19 10 Z 1014,9 29 0,0
09.08.2018 18:00:00 23,2 19,1 14 8 26 14 Z 1015,0 18 0,0
09.08.2018 17:00:00 23,9 19,0 13 7 27 14 ZZW 1015,2 26 0,0
09.08.2018 16:00:00 24,4 18,8 19 10 27 14 ZZW 1015,6 24 0,0
09.08.2018 15:00:00 25,0 18,9 13 7 21 11 ZZW 1015,6 25 0,0
09.08.2018 14:00:00 25,8 19,2 11 6 23 12 ZZW 1016,1 19 0,0
09.08.2018 13:00:00 24,6 20,5 16 9 23 12 ZW 1016,0 17 0,0
09.08.2018 12:00:00 24,3 20,4 13 7 20 11 ZW 1015,9 17 0,0
09.08.2018 11:00:00 23,7 20,2 16 9 20 11 WZW 1015,8 18 0,0
09.08.2018 10:00:00 23,0 19,6 16 9 20 11 WZW 1015,5 19 0,0
09.08.2018 09:00:00 22,3 19,5 10 5 15 8 WZW 1014,8 19 0,0
09.08.2018 08:00:00 22,8 19,8 10 6 19 11 WNW 1014,5 23 0,0
09.08.2018 07:00:00 22,0 19,4 9 5 20 11 NW 1014,0 22 0,0
09.08.2018 06:00:00 21,7 19,8 16 9 24 13 WNW 1013,4 18 0,0
09.08.2018 05:00:00 21,8 20,1 12 7 24 13 WZW 1012,9 22 0,0
09.08.2018 04:00:00 21,5 20,0 8 5 16 8 ZW 1012,6 17 0,0
09.08.2018 03:00:00 21,1 19,9 7 4 19 10 Z 1012,0 8 0,0
09.08.2018 02:00:00 21,6 20,2 10 6 19 10 WZW 1012,1 15 0,0
09.08.2018 01:00:00 21,7 20,2 11 6 17 9 ZZW 1011,9 18 0,0
09.08.2018 00:00:00 21,7 19,8 11 6 46 25 ZZO 1011,8 15 0,0
08.08.2018 23:00:00 23,0 19,4 16 9 46 25 Z 1011,5 36 0,0
08.08.2018 22:00:00 23,0 19,6 31 17 37 20 ZZO 1010,8 32 0,0
08.08.2018 21:00:00 22,8 19,6 30 16 35 19 ZO 1011,0 34 0,0
08.08.2018 20:00:00 22,9 19,5 29 16 37 20 ZO 1010,7 37 0,0
08.08.2018 19:00:00 23,1 19,5 29 16 41 22 ZO 1010,9 30 0,0
08.08.2018 18:00:00 23,2 19,6 31 17 43 23 ZO 1011,3 30 0,0
08.08.2018 17:00:00 23,8 19,5 35 19 43 23 ZO 1011,3 28 0,0
08.08.2018 16:00:00 23,6 19,5 31 17 36 19 ZO 1011,7 27 0,0
08.08.2018 15:00:00 23,7 19,6 29 16 37 20 ZO 1012,2 29 0,0
08.08.2018 14:00:00 24,0 19,5 29 15 38 20 ZZO 1012,4 27 0,0
08.08.2018 13:00:00 23,8 19,1 32 17 38 20 ZZO 1012,5 31 0,0
08.08.2018 12:00:00 23,9 19,2 28 15 35 19 ZZO 1012,8 25 0,0
08.08.2018 11:00:00 23,6 18,9 28 15 35 19 ZZO 1012,8 26 0,0
08.08.2018 10:00:00 23,3 19,0 28 15 35 19 ZZO 1012,8 25 0,0
08.08.2018 09:00:00 22,6 18,8 29 15 36 19 ZZO 1012,4 28 0,0
08.08.2018 08:00:00 22,5 18,5 29 16 36 19 ZZO 1012,4 28 0,0

tt = temperatuur
td = dauwpunt
ff = windsnelheid
fx = windstoten
dd = windrichting
ppp = luchtdruk
vv = zicht
rr = neerslag

Weerstations in de omgeving